This demonstration page uses our WeatherBlox Daily Observations layout. Learn more.

Left ArrowRight Arrow

44.8408, -93.29828

Hourly Observations for March 6, 2017

Temp ( °F °C ) Dew Point ( °F °C ) Humidity (%) Winds ( mph kmh ) Pressure ( in mb ) Visibility ( mi km ) Precip ( " mm )
12:53 am 00:53 Cloudy 50 10 44 6.7 80 80 S 10 17 29.68 1005 10 16 0.00 0.00
1:53 am 01:53 Cloudy 50 10 45 7.2 83 83 SSE 15 24 29.66 1004 10 16 0.00 0.00
2:03 am 02:03 Cloudy 50 10 45 7 82 82 SSE 14 22 29.68 1005 10 16 0.00 0.00
2:53 am 02:53 Cloudy 51 10.6 46 7.8 83 83 SSE 14 22 29.63 1003 10 16 0.00 0.00
3:05 am 03:05 Cloudy 51 10.6 46 7.8 83 83 SSE 14 22 29.62 1003 10 16 0.00 0.00
3:30 am 03:30 Cloudy 52 11 46 8 82 82 SSE 15 24 29.62 1003 10 16 0.00 0.00
3:53 am 03:53 Cloudy 51 10.6 47 8.3 86 86 SSE 15 24 29.60 1002 9 14 0.00 0.00
4:53 am 04:53 Cloudy 52 11.1 47 8.3 83 83 SSE 14 22 29.59 1002 10 16 0.00 0.00
5:10 am 05:10 Cloudy 52 11 46 8 82 82 SSE 16 26 29.59 1002 10 16 0.00 0.00
5:53 am 05:53 Cloudy 52 11.1 47 8.3 83 83 SSE 17 28 29.57 1001 10 16 0.00 0.00
6:53 am 06:53 Cloudy 52 11.1 47 8.3 83 83 SSE 20 31 29.53 1000 10 16 0.00 0.00
7:53 am 07:53 Cloudy 52 11.1 47 8.3 83 83 SSE 17 28 29.52 1000 10 16 0.00 0.00
8:38 am 08:38 Cloudy with Drizzle 52 11.1 48 8.9 86 86 SSE 16 26 29.50 999 5 8 0.00 0.03
8:53 am 08:53 Cloudy with Drizzle 52 11.1 48 8.9 86 86 SSE 21 33 29.49 999 7 11 0.00 0.03
9:30 am 09:30 Cloudy 52 11 48 9 88 88 SSE 23 37 29.47 998 10 16 0.00 0.00
9:53 am 09:53 Cloudy 53 11.7 48 8.9 83 83 SSE 22 35 29.46 998 10 16 0.00 0.03
10:53 am 10:53 Cloudy 53 11.7 48 8.9 83 83 SSE 20 31 29.43 997 10 16 0.00 0.00
11:53 am 11:53 Cloudy 54 12.2 49 9.4 83 83 SSE 16 26 29.40 996 10 16 0.00 0.00
12:53 pm 12:53 Cloudy 56 13.3 49 9.4 77 77 SSE 21 33 29.34 994 10 16 0.00 0.00
1:53 pm 13:53 Cloudy 58 14.4 50 10 75 75 S 15 24 29.31 992 10 16 0.00 0.00
2:23 pm 14:23 Cloudy 60 15.6 51 10.6 72 72 SSE 21 33 29.29 992 10 16 0.00 0.00
2:53 pm 14:53 Mostly Cloudy 61 16.1 52 11.1 72 72 SSE 18 30 29.27 991 10 16 0.00 0.00
3:53 pm 15:53 Mostly Cloudy 64 17.8 54 12.2 70 70 SSE 17 28 29.24 990 10 16 0.00 0.00
4:53 pm 16:53 Cloudy 65 18.3 54 12.2 68 68 SE 20 31 29.19 988 10 16 0.00 0.00
5:53 pm 17:53 Cloudy with Nearby Thunderstorms 64 17.8 54 12.2 70 70 SSE 20 31 29.17 988 10 16 0.00 0.00
6:02 pm 18:02 Cloudy with Thunderstorms 64 18 55 13 73 73 SSW 12 19 29.18 988 3 4 0.00 0.00
6:06 pm 18:06 Cloudy with Thunderstorms 64 18 55 13 73 73 SSW 14 22 29.18 988 3 5 0.00 0.00
6:13 pm 18:13 Cloudy with Thunderstorms 63 17.2 55 12.8 76 76 SSW 16 26 29.15 987 3 5 0.06 1.52
6:18 pm 18:18 Cloudy with Nearby Thunderstorms 63 17 54 12 73 73 S 12 19 29.18 988 3 5 0.00 0.00
6:21 pm 18:21 Cloudy with Thunderstorms 61 16 54 12 77 77 SSE 17 28 29.15 987 3 5 0.00 0.00
6:43 pm 18:43 Cloudy with Nearby Thunderstorms 59 15 52 11.1 78 78 S 14 22 29.15 987 10 16 0.09 2.29
6:53 pm 18:53 Cloudy 59 15 52 11.1 78 78 S 12 19 29.15 987 10 16 0.09 2.29
7:53 pm 19:53 Cloudy 56 13.3 47 8.3 72 72 WSW 8 13 29.17 988 10 16 0.00 0.00
8:53 pm 20:53 Cloudy 53 11.7 45 7.2 74 74 WNW 23 37 29.16 987 10 16 0.00 0.00
9:53 pm 21:53 Mostly Cloudy 47 8.3 38 3.3 71 71 NW 10 17 29.18 988 9 14 0.00 0.00
10:44 pm 22:44 Mostly Cloudy 45 7 37 3 76 76 W 18 30 29.23 990 8 13 0.00 0.00
10:53 pm 22:53 Cloudy 43 6.1 36 2.2 76 76 W 15 24 29.26 991 8 13 0.00 0.03
11:30 pm 23:30 Cloudy 41 5 34 1 76 76 WSW 18 30 29.32 993 10 16 0.00 0.00
11:53 pm 23:53 Cloudy 39 3.9 30 -1.1 70 70 W 17 28 29.30 992 10 16 0.00 0.00

Powered by AerisWeather